Weather in Paracas

Peru     13°50′03″S   76°14′55″W
temp.,
°C
wind,
m/s
gust,
m/s
humid.,
%
clouds,
%
prec.,
mm/h
press.,
hPa
HPBL,
m
11 april, sun
sun1101:00+20ne1184100 0.0 101156
04:00+20sw228458 0.0 100922
07:00+20wsw018382 0.0 101089
10:00+23wnw216838 0.0 1011321
13:00+25wsw436073 0.0 1008495
16:00+24sw43605 0.0 1007483
19:00+21s1374100 0.0 1009100
22:00+20ne028392 0.0 101188
12 april, mon
mon1201:00+19nne128499 0.0 101066
04:00+19nnw1188100 0.0 101052
07:00+19ene118648 0.0 101184
10:00+23w3270100 0.0 1012326
13:00+24w2262100 0.0 1010418
16:00+24sw336396 0.0 1008497
19:00+20ssw137893 0.0 1010111
22:00+19ssw1283100 0.0 101171
13 april, tue
tue1301:00+19ne018699 0.0 101061
04:00+19w018836 0.0 101023
07:00+19nnw11875 0.0 101195
10:00+22wnw227435 0.0 1012343
13:00+24wsw33638 0.0 1010489
16:00+24sw33637 0.0 1008488
19:00+20ssw3378100 0.0 101199
22:00+19e0282100 0.0 101382
14 april, wed
wed1401:00+19n118896 0.0 101262
04:00+18se118960 0.0 101116
07:00+19ssw128799 0.0 101297
10:00+22wsw326949 0.0 1012403
13:00+24sw54626 0.0 1010576
16:00+23sw54631 0.0 1009466
19:00+20ssw237870 0.0 101175
22:00+19ne128750 0.0 101277
15 april, thu
thu1501:00+18ne128920 0.0 101147
04:00+18ne229243 0.0 101157
07:00+18nne2490100 0.0 1012192
10:00+21nnw3276100 0.0 1013430
13:00+23w326817 0.0 1010426
16:00+23ssw44654 0.0 1009541
19:00+19ssw2379100 0.0 101178
22:00+19s1283100 0.0 101242